Location: Newark
(47.5000°N, 4.6167°E)
Time: 11:10:07
(UTC+00:00)

ISS - Pass Details

Date: 03 December 2021
Orbit: 413 x 422 km, 51.6° (Epoch: 19 January)

Event Time Altitude Azimuth Distance (km) Brightness Sun altitude
Rises 17:39:30 0° 294° (WNW) 2,383 0.9 -17.5°
Reaches altitude 10° 17:41:37 10° 295° (WNW) 1,514 -0.2 -17.8°
Maximum altitude 17:45:01 83° 24° (NNE) 430 -3.9 -18.4°
Enters shadow 17:45:31 62° 101° (E) 479 -3.8 -18.5°
